Lid_Strength_Index
1 3 3 5 9 11 14 12 11 10 10 9 7 7 7 7 9 12 5 1 0 -0 -1 -1 -1 -2 -2 -2 -2 -2 -2 -2 -2 -2 -2 -2 -2 -2 -2 -2 -2 -3 -2 -1 -1 -2 -2 -2 -2
3 2 4 8 12 15 14 12 10 10 8 7 7 8 8 9 5 6 3 0 0 -0 -1 -1 -1 -1 -2 -2 -2 -2 -2 -2 -2 -2 -2 -2 -2 -2 -2 -2 -2 -2 -2 -2 -2 -2 -2 -2 -2
3 3 8 10 12 14 14 11 9 9 8 8 8 7 7 7 5 5 2 0 0 -0 -1 -1 -1 -1 -2 -2 -2 -2 -2 -2 -2 -2 -2 -2 -2 -2 -2 -2 -2 -2 -2 -2 -2 -2 -2 -2 -2
5 6 9 12 14 12 12 10 9 9 8 7 7 7 6 4 4 2 1 0 0 -0 -1 -0 -1 -1 -2 -2 -2 -2 -2 -2 -2 -2 -2 -2 -2 -2 -2 -2 -2 -2 -2 -2 -2 -2 -2 -2 -2
6 8 11 13 13 12 10 8 8 9 9 9 8 8 7 5 2 1 2 1 1 0 -0 -1 -1 -1 -1 -2 -2 -2 -2 -2 -2 -2 -2 -2 -2 -2 -2 -2 -2 -2 -2 -2 -2 -2 -2 -2 -2
9 9 13 14 13 11 10 8 8 9 8 9 9 8 7 5 3 2 2 1 -0 0 -0 -1 1 -0 -1 -1 -2 -2 -2 -2 -2 -2 -2 -2 -2 -2 -2 -2 -2 -2 -2 -2 -2 -2 -2 -2 -2
9 11 13 13 13 11 10 8 9 9 9 9 7 9 7 5 4 2 2 1 -0 -0 -0 -0 -0 -0 0 -0 -1 -2 -2 -2 -2 -2 -2 -2 -2 -3 -3 -2 -1 -1 -2 -2 -2 -2 -2 -2 -2
9 10 12 12 12 12 10 9 9 9 10 7 7 9 8 5 4 3 2 1 0 -0 -0 -0 -0 -0 -0 -0 0 -0 -1 -1 -1 -2 -1 -1 -1 -2 -2 -1 -1 -1 -1 -2 -2 -2 -2 -1 -1
9 12 14 13 12 12 10 10 9 8 8 9 7 6 5 3 2 4 5 3 2 1 0 -0 -0 -0 -0 -0 1 1 0 0 -0 -0 0 1 1 0 0 -0 -1 -1 -1 -1 -1 -1 -0 0 1
11 13 12 11 12 12 9 10 9 10 10 10 8 6 4 3 3 4 5 4 3 2 1 -0 -0 -0 -0 -0 1 1 0 -0 -0 -0 0 -0 -0 -0 -0 1 -0 -1 -1 -1 -0 0 1 3 5
11 12 11 11 10 10 10 10 9 10 11 9 9 6 4 5 4 4 4 4 3 2 1 0 -0 -0 -0 -0 0 0 0 0 0 0 -0 0 0 1 1 2 2 3 3 3 3 4 5 5 5
12 10 10 9 9 10 11 9 10 10 9 8 8 6 4 5 5 4 3 4 4 2 2 1 0 -0 -0 -0 -0 -0 -0 0 0 0 1 1 1 2 1 2 3 4 4 4 5 6 6 7 7
11 11 10 9 10 10 9 11 11 10 9 9 7 6 5 5 4 5 4 4 4 2 2 1 1 0 -0 0 0 -0 0 1 1 1 1 1 2 2 2 2 3 4 4 5 5 6 7 8 8
10 10 10 9 10 10 11 11 11 10 9 9 8 7 6 5 4 5 5 4 4 3 2 1 1 0 0 0 0 0 0 1 1 1 1 1 2 2 2 2 3 3 4 5 7 9 10 11 11
9 12 11 10 10 10 10 12 11 10 9 10 10 9 8 6 5 5 4 4 3 3 2 2 2 2 1 1 0 0 0 1 1 1 1 2 2 2 4 4 5 5 5 7 9 10 11 12 12
12 13 15 11 10 10 11 15 11 10 10 10 10 11 9 8 8 5 5 4 4 3 3 2 1 2 1 1 1 1 1 0 1 1 1 2 2 2 4 5 5 5 6 9 10 12 13 13 13
14 17 15 12 10 10 12 14 10 9 10 10 11 10 10 9 9 8 7 4 4 3 3 2 2 2 3 2 2 1 1 1 0 1 1 2 2 3 5 6 6 6 7 9 11 12 13 14 14
16 16 15 15 11 12 13 13 11 10 10 10 10 10 9 9 8 8 8 6 3 3 2 2 2 2 3 4 5 5 4 4 2 2 1 2 3 4 5 7 6 7 8 10 11 12 13 14 15
14 15 16 14 11 12 13 13 12 10 11 11 11 11 10 9 8 8 7 7 4 3 3 3 3 3 4 5 6 7 6 7 7 5 3 2 4 5 6 7 7 7 8 10 11 13 14 15 14
13 14 15 13 11 12 13 13 12 11 11 10 10 10 10 10 9 8 8 8 5 3 3 3 3 3 4 4 7 7 8 8 8 8 6 6 5 6 7 7 7 7 8 10 12 13 14 14 14
14 14 15 14 13 13 14 15 13 12 11 10 9 10 10 10 9 9 9 8 6 3 4 3 3 4 4 6 8 9 10 10 10 10 9 8 7 7 7 7 7 7 8 10 12 13 14 15 14
15 12 12 13 15 18 14 19 15 12 12 11 10 10 10 10 9 9 8 9 7 5 4 4 4 5 5 6 7 7 7 8 9 9 9 9 8 8 9 7 7 8 8 10 11 13 13 13 15
13 11 12 13 15 16 16 18 16 14 13 12 11 9 10 9 9 9 9 8 8 6 6 5 5 4 5 6 5 5 5 5 8 9 9 10 10 9 9 8 8 8 8 9 10 12 13 13 14
10 11 12 13 15 19 16 16 18 15 13 12 11 11 9 10 10 9 9 8 8 8 7 5 5 5 5 6 7 6 6 6 9 9 10 10 11 10 9 9 8 8 8 9 10 11 12 13 13
11 14 18 18 19 20 15 17 15 13 11 10 10 10 10 10 10 10 10 9 8 8 7 6 5 6 6 6 7 8 7 9 9 10 10 11 12 13 11 10 10 9 9 9 10 11 12 12 12
13 13 17 21 20 19 15 18 15 11 10 9 9 9 9 9 9 10 9 10 9 8 7 7 7 7 7 7 8 8 8 10 10 11 12 12 12 12 11 11 11 10 10 10 11 11 11 11 11
13 14 12 16 20 19 17 15 12 10 9 9 10 9 9 10 10 9 9 9 9 8 8 8 8 8 8 8 8 9 9 10 11 11 12 12 13 13 13 12 13 12 12 11 11 11 12 12 12
11 10 15 15 20 21 19 17 15 12 11 10 11 10 10 10 10 10 10 9 9 9 8 9 8 8 9 9 9 9 10 10 11 11 12 13 13 14 14 14 13 13 13 13 12 12 12 12 13
13 14 13 13 15 19 20 18 13 11 11 12 11 11 11 11 11 11 10 10 10 10 9 9 9 9 9 9 9 9 10 11 12 12 12 12 14 15 15 15 15 15 15 14 13 13 13 13 15
12 13 12 16 17 16 16 16 11 11 11 11 11 10 11 11 11 11 11 11 11 10 10 10 10 10 9 9 10 10 11 12 13 13 14 14 15 16 16 16 16 16 16 15 14 15 14 14 15